Time,TemperatureF,DewpointF,PressureIn,WindDirection,WindDirectionDegrees,WindSpeedMPH,WindSpeedGustMPH,Humidity,HourlyPrecipIn,Conditions,Clouds,dailyrainin,SoftwareType,DateUTC
2013-09-16 00:07:00,81.2,73.0,30.02,East,95,0.0,1.0,77,0.00,,,0.00,weatherlink.com 1.10,2013-09-16 05:07:00,
2013-09-16 00:22:00,80.9,73.0,30.02,East,95,0.0,3.0,77,0.00,,,0.00,weatherlink.com 1.10,2013-09-16 05:22:00,
2013-09-16 00:37:00,80.6,73.0,30.03,East,98,0.0,1.0,78,0.00,,,0.00,weatherlink.com 1.10,2013-09-16 05:37:00,
2013-09-16 00:52:00,80.5,73.0,30.03,East,98,0.0,0.0,79,0.00,,,0.00,weatherlink.com 1.10,2013-09-16 05:52:00,
2013-09-16 01:07:00,80.1,73.0,30.03,East,98,0.0,0.0,79,0.00,,,0.00,weatherlink.com 1.10,2013-09-16 06:07:00,
2013-09-16 01:22:00,79.6,73.0,30.03,East,98,0.0,0.0,80,0.00,,,0.00,weatherlink.com 1.10,2013-09-16 06:22:00,
2013-09-16 01:37:00,79.2,73.0,30.02,East,98,0.0,0.0,81,0.00,,,0.00,weatherlink.com 1.10,2013-09-16 06:37:00,
2013-09-16 01:52:00,78.7,73.0,30.02,East,98,0.0,0.0,82,0.00,,,0.00,weatherlink.com 1.10,2013-09-16 06:52:00,
2013-09-16 02:07:00,78.4,73.0,30.02,East,98,0.0,0.0,83,0.00,,,0.00,weatherlink.com 1.10,2013-09-16 07:07:00,
2013-09-16 02:22:00,77.9,72.0,30.02,East,98,0.0,0.0,83,0.00,,,0.00,weatherlink.com 1.10,2013-09-16 07:22:00,
2013-09-16 02:37:00,77.3,72.0,30.02,East,98,0.0,0.0,83,0.00,,,0.00,weatherlink.com 1.10,2013-09-16 07:37:00,
2013-09-16 02:52:00,76.9,72.0,30.02,East,98,0.0,0.0,84,0.00,,,0.00,weatherlink.com 1.10,2013-09-16 07:52:00,
2013-09-16 03:07:00,76.5,72.0,30.02,East,99,0.0,0.0,85,0.00,,,0.00,weatherlink.com 1.10,2013-09-16 08:07:00,
2013-09-16 03:22:00,76.0,71.0,30.02,East,99,0.0,0.0,85,0.00,,,0.00,weatherlink.com 1.10,2013-09-16 08:22:00,
2013-09-16 03:37:00,75.7,71.0,30.03,East,99,0.0,0.0,86,0.00,,,0.00,weatherlink.com 1.10,2013-09-16 08:37:00,
2013-09-16 03:52:00,75.3,71.0,30.03,East,99,0.0,0.0,86,0.00,,,0.00,weatherlink.com 1.10,2013-09-16 08:52:00,
2013-09-16 04:08:00,74.8,70.0,30.03,East,99,0.0,0.0,86,0.00,,,0.00,weatherlink.com 1.10,2013-09-16 09:08:00,
2013-09-16 04:23:00,74.5,70.0,30.03,East,99,0.0,0.0,86,0.00,,,0.00,weatherlink.com 1.10,2013-09-16 09:23:00,
2013-09-16 04:38:00,74.1,70.0,30.03,East,99,0.0,0.0,87,0.00,,,0.00,weatherlink.com 1.10,2013-09-16 09:38:00,
2013-09-16 04:53:00,73.8,70.0,30.02,East,99,0.0,0.0,87,0.00,,,0.00,weatherlink.com 1.10,2013-09-16 09:53:00,
2013-09-16 05:08:00,73.3,69.0,30.02,East,99,0.0,0.0,87,0.00,,,0.00,weatherlink.com 1.10,2013-09-16 10:08:00,
2013-09-16 05:23:00,73.1,69.0,30.03,East,99,0.0,0.0,87,0.00,,,0.00,weatherlink.com 1.10,2013-09-16 10:23:00,
2013-09-16 05:38:00,72.7,69.0,30.03,East,99,0.0,0.0,87,0.00,,,0.00,weatherlink.com 1.10,2013-09-16 10:38:00,
2013-09-16 05:53:00,72.5,68.0,30.03,East,99,0.0,0.0,86,0.00,,,0.00,weatherlink.com 1.10,2013-09-16 10:53:00,
2013-09-16 06:08:00,72.2,68.0,30.03,East,99,0.0,0.0,86,0.00,,,0.00,weatherlink.com 1.10,2013-09-16 11:08:00,
2013-09-16 06:23:00,71.8,68.0,30.04,East,99,0.0,0.0,86,0.00,,,0.00,weatherlink.com 1.10,2013-09-16 11:23:00,
2013-09-16 06:38:00,71.6,67.0,30.04,East,99,0.0,0.0,86,0.00,,,0.00,weatherlink.com 1.10,2013-09-16 11:38:00,
2013-09-16 06:53:00,71.6,67.0,30.04,North,359,0.0,0.0,86,0.00,,,0.00,weatherlink.com 1.10,2013-09-16 11:53:00,
2013-09-16 07:08:00,71.5,67.0,30.04,North,350,0.0,1.0,85,0.00,,,0.00,weatherlink.com 1.10,2013-09-16 12:08:00,
2013-09-16 07:23:00,71.3,67.0,30.05,North,355,0.0,0.0,85,0.00,,,0.00,weatherlink.com 1.10,2013-09-16 12:23:00,
2013-09-16 07:38:00,71.3,67.0,30.05,North,355,0.0,0.0,85,0.00,,,0.00,weatherlink.com 1.10,2013-09-16 12:38:00,
2013-09-16 07:53:00,71.6,67.0,30.06,North,350,0.0,0.0,85,0.00,,,0.00,weatherlink.com 1.10,2013-09-16 12:53:00,
2013-09-16 08:08:00,72.0,67.0,30.06,North,355,0.0,0.0,85,0.00,,,0.00,weatherlink.com 1.10,2013-09-16 13:08:00,
2013-09-16 08:23:00,72.5,68.0,30.06,North,355,0.0,0.0,86,0.00,,,0.00,weatherlink.com 1.10,2013-09-16 13:23:00,
2013-09-16 08:38:00,73.7,69.0,30.07,North,355,0.0,0.0,86,0.00,,,0.00,weatherlink.com 1.10,2013-09-16 13:38:00,
2013-09-16 08:53:00,75.8,72.0,30.07,North,359,0.0,1.0,87,0.00,,,0.00,weatherlink.com 1.10,2013-09-16 13:53:00,
2013-09-16 09:08:00,77.9,73.0,30.07,North,359,0.0,2.0,84,0.00,,,0.00,weatherlink.com 1.10,2013-09-16 14:08:00,
2013-09-16 09:23:00,79.9,73.0,30.07,WNW,284,0.0,4.0,80,0.00,,,0.00,weatherlink.com 1.10,2013-09-16 14:23:00,
2013-09-16 09:38:00,81.3,73.0,30.07,West,280,0.0,1.0,77,0.00,,,0.00,weatherlink.com 1.10,2013-09-16 14:38:00,
2013-09-16 09:53:00,83.2,73.0,30.07,WSW,251,0.0,1.0,71,0.00,,,0.00,weatherlink.com 1.10,2013-09-16 14:53:00,
2013-09-16 10:08:00,84.4,73.0,30.07,SW,231,0.0,3.0,68,0.00,,,0.00,weatherlink.com 1.10,2013-09-16 15:08:00,
2013-09-16 10:23:00,84.8,73.0,30.07,South,182,0.0,2.0,67,0.00,,,0.00,weatherlink.com 1.10,2013-09-16 15:23:00,
2013-09-16 10:38:00,85.5,73.0,30.07,South,184,0.0,1.0,66,0.00,,,0.00,weatherlink.com 1.10,2013-09-16 15:38:00,
2013-09-16 10:53:00,86.5,72.0,30.07,South,176,0.0,7.0,63,0.00,,,0.00,weatherlink.com 1.10,2013-09-16 15:53:00,
2013-09-16 11:08:00,87.7,72.0,30.07,WNW,301,0.0,7.0,59,0.00,,,0.00,weatherlink.com 1.10,2013-09-16 16:08:00,
2013-09-16 11:23:00,88.8,71.0,30.07,East,90,0.0,9.0,55,0.00,,,0.00,weatherlink.com 1.10,2013-09-16 16:23:00,
2013-09-16 11:38:00,88.9,71.0,30.07,South,181,0.0,1.0,55,0.00,,,0.00,weatherlink.com 1.10,2013-09-16 16:38:00,
2013-09-16 11:53:00,90.3,71.0,30.07,NNW,336,0.0,4.0,53,0.00,,,0.00,weatherlink.com 1.10,2013-09-16 16:53:00,
2013-09-16 12:08:00,91.3,70.0,30.06,NW,305,1.0,6.0,49,0.00,,,0.00,weatherlink.com 1.10,2013-09-16 17:08:00,
2013-09-16 12:24:00,92.0,69.0,30.06,WSW,254,0.0,7.0,47,0.00,,,0.00,weatherlink.com 1.10,2013-09-16 17:24:00,
2013-09-16 12:39:00,93.7,67.0,30.05,SSW,207,0.0,6.0,41,0.00,,,0.00,weatherlink.com 1.10,2013-09-16 17:39:00,
2013-09-16 12:54:00,93.8,67.0,30.04,SSW,192,0.0,5.0,41,0.00,,,0.00,weatherlink.com 1.10,2013-09-16 17:54:00,
2013-09-16 13:09:00,94.6,66.0,30.04,NW,315,4.0,7.0,39,0.00,,,0.00,weatherlink.com 1.10,2013-09-16 18:09:00,
2013-09-16 13:24:00,95.5,67.0,30.03,South,176,0.0,5.0,39,0.00,,,0.00,weatherlink.com 1.10,2013-09-16 18:24:00,
2013-09-16 13:39:00,95.7,66.0,30.02,West,281,0.0,8.0,37,0.00,,,0.00,weatherlink.com 1.10,2013-09-16 18:39:00,
2013-09-16 13:54:00,97.0,60.0,30.01,WNW,288,5.0,10.0,29,0.00,,,0.00,weatherlink.com 1.10,2013-09-16 18:54:00,
2013-09-16 14:09:00,96.2,60.0,30.00,SSW,207,0.0,3.0,30,0.00,,,0.00,weatherlink.com 1.10,2013-09-16 19:09:00,
2013-09-16 14:24:00,95.2,64.0,30.00,SE,138,0.0,1.0,35,0.00,,,0.00,weatherlink.com 1.10,2013-09-16 19:24:00,
2013-09-16 14:39:00,94.3,67.0,30.00,SE,125,0.0,5.0,41,0.00,,,0.00,weatherlink.com 1.10,2013-09-16 19:39:00,
2013-09-16 14:54:00,94.1,66.0,29.99,SE,134,0.0,1.0,39,0.00,,,0.00,weatherlink.com 1.10,2013-09-16 19:54:00,
2013-09-16 15:09:00,94.1,66.0,29.99,SE,143,0.0,1.0,39,0.00,,,0.00,weatherlink.com 1.10,2013-09-16 20:09:00,
2013-09-16 15:24:00,93.8,65.0,29.98,South,172,0.0,1.0,39,0.00,,,0.00,weatherlink.com 1.10,2013-09-16 20:24:00,
2013-09-16 15:39:00,93.7,63.0,29.98,SSE,149,0.0,3.0,36,0.00,,,0.00,weatherlink.com 1.10,2013-09-16 20:39:00,
2013-09-16 15:54:00,94.2,63.0,29.98,South,174,0.0,1.0,36,0.00,,,0.00,weatherlink.com 1.10,2013-09-16 20:54:00,
2013-09-16 16:09:00,94.9,64.0,29.97,SSW,199,0.0,3.0,36,0.00,,,0.00,weatherlink.com 1.10,2013-09-16 21:09:00,
2013-09-16 16:24:00,96.3,63.0,29.97,SSW,201,0.0,1.0,33,0.00,,,0.00,weatherlink.com 1.10,2013-09-16 21:24:00,
2013-09-16 16:39:00,97.7,63.0,29.96,South,188,0.0,1.0,32,0.00,,,0.00,weatherlink.com 1.10,2013-09-16 21:39:00,
2013-09-16 16:54:00,97.8,63.0,29.97,SSW,209,0.0,3.0,32,0.00,,,0.00,weatherlink.com 1.10,2013-09-16 21:54:00,
2013-09-16 17:09:00,96.5,64.0,29.96,South,190,0.0,7.0,34,0.00,,,0.00,weatherlink.com 1.10,2013-09-16 22:09:00,
2013-09-16 17:24:00,95.6,65.0,29.96,WNW,294,0.0,4.0,37,0.00,,,0.00,weatherlink.com 1.10,2013-09-16 22:24:00,
2013-09-16 17:39:00,95.4,65.0,29.96,South,178,0.0,5.0,37,0.00,,,0.00,weatherlink.com 1.10,2013-09-16 22:39:00,
2013-09-16 17:54:00,95.0,66.0,29.96,SW,235,0.0,1.0,38,0.00,,,0.00,weatherlink.com 1.10,2013-09-16 22:54:00,
2013-09-16 18:09:00,94.9,66.0,29.96,SE,143,0.0,1.0,38,0.00,,,0.00,weatherlink.com 1.10,2013-09-16 23:09:00,
2013-09-16 18:24:00,94.2,67.0,29.96,West,279,0.0,5.0,41,0.00,,,0.00,weatherlink.com 1.10,2013-09-16 23:24:00,
2013-09-16 18:39:00,92.9,66.0,29.95,SSW,193,0.0,1.0,41,0.00,,,0.00,weatherlink.com 1.10,2013-09-16 23:39:00,
2013-09-16 18:54:00,91.8,67.0,29.96,SSW,193,0.0,1.0,44,0.00,,,0.00,weatherlink.com 1.10,2013-09-16 23:54:00,
2013-09-16 19:09:00,90.8,67.0,29.95,SSW,193,0.0,1.0,46,0.00,,,0.00,weatherlink.com 1.10,2013-09-17 00:09:00,
2013-09-16 19:24:00,89.6,66.0,29.96,SSW,194,0.0,0.0,46,0.00,,,0.00,weatherlink.com 1.10,2013-09-17 00:24:00,
2013-09-16 19:39:00,88.2,67.0,29.96,SSW,194,0.0,0.0,49,0.00,,,0.00,weatherlink.com 1.10,2013-09-17 00:39:00,
2013-09-16 19:54:00,86.9,67.0,29.97,SSW,194,0.0,0.0,52,0.00,,,0.00,weatherlink.com 1.10,2013-09-17 00:54:00,
2013-09-16 20:09:00,85.3,68.0,29.97,SSW,194,0.0,0.0,57,0.00,,,0.00,weatherlink.com 1.10,2013-09-17 01:09:00,
2013-09-16 20:24:00,83.8,67.0,29.99,SSW,194,0.0,0.0,58,0.00,,,0.00,weatherlink.com 1.10,2013-09-17 01:24:00,
2013-09-16 20:39:00,82.7,67.0,30.00,SSW,193,0.0,0.0,60,0.00,,,0.00,weatherlink.com 1.10,2013-09-17 01:39:00,
2013-09-16 20:54:00,82.0,67.0,30.00,SSW,193,0.0,0.0,61,0.00,,,0.00,weatherlink.com 1.10,2013-09-17 01:54:00,
2013-09-16 21:09:00,81.6,68.0,30.00,SSW,194,0.0,0.0,63,0.00,,,0.00,weatherlink.com 1.10,2013-09-17 02:09:00,
2013-09-16 21:24:00,81.1,68.0,30.00,SSW,193,0.0,0.0,64,0.00,,,0.00,weatherlink.com 1.10,2013-09-17 02:24:00,
2013-09-16 21:39:00,80.5,68.0,30.01,SSW,194,0.0,0.0,65,0.00,,,0.00,weatherlink.com 1.10,2013-09-17 02:39:00,
2013-09-16 21:54:00,80.0,67.0,30.02,SSW,194,0.0,0.0,65,0.00,,,0.00,weatherlink.com 1.10,2013-09-17 02:54:00,
2013-09-16 22:09:00,79.4,67.0,30.02,SSW,194,0.0,0.0,66,0.00,,,0.00,weatherlink.com 1.10,2013-09-17 03:09:00,
2013-09-16 22:24:00,78.7,68.0,30.03,SSW,193,0.0,0.0,69,0.00,,,0.00,weatherlink.com 1.10,2013-09-17 03:24:00,
2013-09-16 22:39:00,78.2,68.0,30.04,SSW,193,0.0,0.0,70,0.00,,,0.00,weatherlink.com 1.10,2013-09-17 03:39:00,
2013-09-16 22:54:00,77.9,68.0,30.04,SSW,194,0.0,0.0,71,0.00,,,0.00,weatherlink.com 1.10,2013-09-17 03:54:00,
2013-09-16 23:09:00,77.7,68.0,30.04,SSW,193,0.0,0.0,72,0.00,,,0.00,weatherlink.com 1.10,2013-09-17 04:09:00,
2013-09-16 23:24:00,77.5,68.0,30.04,SSW,194,0.0,0.0,73,0.00,,,0.00,weatherlink.com 1.10,2013-09-17 04:24:00,
2013-09-16 23:39:00,77.4,69.0,30.04,SSW,194,0.0,0.0,74,0.00,,,0.00,weatherlink.com 1.10,2013-09-17 04:39:00,
2013-09-16 23:54:00,77.1,69.0,30.04,SSW,194,0.0,0.0,75,0.00,,,0.00,weatherlink.com 1.10,2013-09-17 04:54:00,